TimeEST,TemperatureF,Dew PointF,Humidity,Sea Level PressureIn,VisibilityMPH,Wind Direction,Wind SpeedMPH,Gust SpeedMPH,PrecipitationIn,Events,Conditions,WindDirDegrees,DateUTC
12:53 AM,37.0,10.9,34,30.35,10.0,WSW,3.5,-,N/A,,Overcast,250,2013-11-26 05:53:00
1:53 AM,35.1,28.0,76,30.32,10.0,Calm,Calm,-,0.00,,Overcast,0,2013-11-26 06:53:00
2:53 AM,36.0,26.1,67,30.30,10.0,Calm,Calm,-,N/A,,Overcast,0,2013-11-26 07:53:00
3:27 AM,35.6,23.0,60,30.29,10.0,NNE,3.5,-,N/A,,Overcast,20,2013-11-26 08:27:00
3:53 AM,36.0,21.9,57,30.29,10.0,North,4.6,-,N/A,,Overcast,10,2013-11-26 08:53:00
4:21 AM,35.6,21.2,56,30.29,10.0,Calm,Calm,-,0.00,,Overcast,0,2013-11-26 09:21:00
4:53 AM,34.0,28.0,79,30.30,9.0,Calm,Calm,-,0.03,Rain,Light Rain,0,2013-11-26 09:53:00
5:53 AM,33.1,26.1,75,30.29,9.0,Calm,Calm,-,0.06,Rain,Light Rain,0,2013-11-26 10:53:00
6:43 AM,33.8,26.6,75,30.28,9.0,Calm,Calm,-,0.05,Rain,Light Rain,0,2013-11-26 11:43:00
6:53 AM,33.1,28.0,82,30.27,7.0,Calm,Calm,-,0.06,Rain,Light Rain,0,2013-11-26 11:53:00
7:50 AM,33.8,30.2,87,30.25,10.0,East,3.5,-,0.03,Rain,Light Freezing Rain,90,2013-11-26 12:50:00
7:53 AM,33.1,30.0,89,30.24,10.0,ENE,4.6,-,0.03,Rain,Light Freezing Rain,70,2013-11-26 12:53:00
8:26 AM,33.8,30.2,87,30.23,5.0,East,4.6,-,0.00,Rain,Light Freezing Rain,80,2013-11-26 13:26:00
8:34 AM,33.8,30.2,87,30.22,8.0,East,4.6,-,0.01,,Overcast,80,2013-11-26 13:34:00
8:53 AM,33.1,30.0,89,30.22,9.0,NE,4.6,-,0.01,,Overcast,50,2013-11-26 13:53:00
9:53 AM,34.0,30.9,89,30.20,6.0,NE,5.8,-,0.04,Rain,Light Rain,40,2013-11-26 14:53:00
10:53 AM,34.0,30.9,89,30.17,5.0,NE,4.6,-,0.10,Rain,Light Rain,50,2013-11-26 15:53:00
11:53 AM,35.1,32.0,89,30.12,4.0,ENE,6.9,-,0.11,Rain,Light Rain,60,2013-11-26 16:53:00
12:53 PM,35.1,33.1,92,30.06,4.0,ENE,6.9,-,0.09,Rain,Light Rain,60,2013-11-26 17:53:00
1:21 PM,35.6,33.8,93,30.02,3.0,ENE,10.4,-,0.07,Rain,Light Rain,70,2013-11-26 18:21:00
1:53 PM,36.0,34.0,93,29.97,3.0,East,9.2,17.3,0.15,Rain,Light Rain,80,2013-11-26 18:53:00
2:06 PM,37.4,33.8,87,29.97,2.5,East,9.2,17.3,0.03,Rain,Rain,80,2013-11-26 19:06:00
2:53 PM,37.9,36.0,93,29.89,2.5,East,9.2,-,0.17,Rain,Light Rain,90,2013-11-26 19:53:00
3:07 PM,39.2,37.4,93,29.88,3.0,East,5.8,-,0.04,Rain,Light Rain,90,2013-11-26 20:07:00
3:38 PM,39.2,37.4,93,29.87,2.5,Variable,5.8,-,0.12,Rain,Light Rain,0,2013-11-26 20:38:00
3:53 PM,39.9,39.0,97,29.85,3.0,Variable,3.5,-,0.15,Rain,Light Rain,0,2013-11-26 20:53:00
4:39 PM,42.8,41.0,93,29.81,2.5,Calm,Calm,-,0.08,Rain,Light Rain,0,2013-11-26 21:39:00
4:46 PM,44.6,42.8,93,29.81,4.0,Calm,Calm,-,0.09,Rain,Light Rain,0,2013-11-26 21:46:00
4:53 PM,44.1,42.1,93,29.80,5.0,Calm,Calm,-,0.11,Rain,Light Rain,0,2013-11-26 21:53:00
5:53 PM,46.0,44.1,93,29.74,4.0,NNW,6.9,-,0.09,Rain,Light Rain,340,2013-11-26 22:53:00
6:40 PM,46.4,44.6,93,29.71,2.0,North,4.6,-,0.08,Rain,Rain,360,2013-11-26 23:40:00
6:53 PM,45.0,43.0,93,29.70,4.0,NW,4.6,-,0.12,Rain,Light Rain,320,2013-11-26 23:53:00
7:26 PM,42.8,39.2,87,29.69,2.5,North,3.5,17.3,0.11,Rain,Heavy Rain,350,2013-11-27 00:26:00
7:39 PM,42.8,39.2,87,29.69,4.0,NW,8.1,-,0.16,Rain,Light Rain,310,2013-11-27 00:39:00
7:53 PM,42.1,39.0,89,29.67,3.0,NNW,9.2,-,0.21,Rain,Rain,340,2013-11-27 00:53:00
8:36 PM,41.0,37.4,87,29.71,5.0,NW,9.2,-,0.17,Rain,Light Rain,320,2013-11-27 01:36:00
8:48 PM,41.0,39.2,93,29.70,8.0,NNW,10.4,-,0.22,Rain,Light Rain,340,2013-11-27 01:48:00
8:53 PM,41.0,39.0,93,29.69,6.0,NNW,6.9,-,0.24,Rain,Light Rain,340,2013-11-27 01:53:00
9:53 PM,43.0,41.0,93,29.65,8.0,North,5.8,-,0.18,Rain,Light Rain,350,2013-11-27 02:53:00
10:10 PM,44.6,41.0,87,29.66,10.0,Calm,Calm,-,0.01,,Overcast,0,2013-11-27 03:10:00
10:53 PM,44.1,42.1,93,29.62,4.0,Calm,Calm,-,0.04,Rain,Light Rain,0,2013-11-27 03:53:00
11:14 PM,44.6,41.0,87,29.63,4.0,Calm,Calm,-,0.04,Rain,Light Rain,0,2013-11-27 04:14:00
11:31 PM,44.6,42.8,93,29.61,3.0,Calm,Calm,-,0.07,Rain,Light Rain,0,2013-11-27 04:31:00
11:40 PM,44.6,42.8,93,29.62,4.0,Calm,Calm,-,0.08,Rain,Light Rain,0,2013-11-27 04:40:00
11:47 PM,42.8,42.8,100,29.62,3.0,Calm,Calm,-,0.10,Rain,Light Rain,0,2013-11-27 04:47:00
11:51 PM,42.8,42.8,100,29.61,2.5,Calm,Calm,-,0.10,Rain,Light Rain,0,2013-11-27 04:51:00
11:53 PM,43.0,42.1,97,29.60,2.5,Calm,Calm,-,0.11,Rain,Light Rain,0,2013-11-27 04:53:00